Location: Fort Wayne
(41.1310°N, 85.1290°W)
Time: 11:41:26
(UTC-04:00)

Iridium 37 - Visible Passes

Search period start: 26 April 2015 00:00
Search period end: 06 May 2015 00:00
Orbit: 776 x 779 km, 86.4° (Epoch: 26 April)

Date Brightness Start Highest point End Pass type
(mag) Time Alt. Az. Time Alt. Az. Time Alt. Az.
26 Apr 8.5 05:11:53 10° ESE 05:14:19 14° E 05:17:02 10° NE visible
28 Apr 7.2 05:42:54 10° SSE 05:47:35 36° E 05:52:21 10° NNE visible
29 Apr 8.2 05:10:39 10° SE 05:14:16 20° E 05:18:04 10° NE visible
30 Apr 8.7 04:40:09 10° E 04:41:02 11° ENE 04:42:17 10° ENE visible
01 May 6.5 05:42:36 10° SSE 05:47:37 52° E 05:52:42 10° NNE visible
02 May 7.6 05:09:54 10° SE 05:14:15 28° E 05:18:42 10° NNE visible
03 May 8.3 04:38:02 10° ESE 04:40:57 16° E 04:44:07 10° NE visible
04 May 5.8 05:42:30 10° S 05:47:41 76° E 05:52:55 10° N visible
05 May 6.8 05:09:26 10° SSE 05:14:15 41° E 05:19:08 10° NNE visible
